• In Uzbekistan
  • List of Countries
  • For 7 days
  • Water Temperature
  • Satellite Maps
  • Weather Map
  • Weather Widgets
  • user-avatar
    Login

    Hourly Weather Nachyn

    Today, 20 January, Sunday

    Time Temperature Precipitation Wind Pressure Humidity
    00:00 -6°C° 0 mm 6 mps 764 mmHg 41%
    01:00 -7°C° 0 mm 7 mps 764 mmHg 41%
    02:00 -8°C° 0 mm 8 mps 763 mmHg 41%
    03:00 -9°C° 0 mm 9 mps 763 mmHg 40%
    04:00 -10°C° 0 mm 9 mps 763 mmHg 41%
    05:00 -10°C° 0 mm 10 mps 763 mmHg 42%
    06:00 -10°C° 0 mm 10 mps 763 mmHg 43%
    07:00 -10°C° 0 mm 10 mps 763 mmHg 42%
    08:00 -12°C° 0 mm 10 mps 763 mmHg 41%
    09:00 -10°C° 0 mm 9 mps 763 mmHg 35%
    10:00 -10°C° 0 mm 9 mps 763 mmHg 33%
    11:00 -10°C° 0 mm 10 mps 763 mmHg 31%
    12:00 -11°C° 0 mm 11 mps 763 mmHg 29%
    13:00 -10°C° 0 mm 10 mps 763 mmHg 28%
    14:00 -9°C° 0 mm 10 mps 762 mmHg 26%
    15:00 -8°C° 0 mm 9 mps 762 mmHg 22%
    16:00 -9°C° 0 mm 9 mps 762 mmHg 24%
    17:00 -10°C° 0 mm 9 mps 763 mmHg 26%
    18:00 -10°C° 0 mm 9 mps 763 mmHg 28%
    19:00 -10°C° 0 mm 9 mps 763 mmHg 29%
    20:00 -11°C° 0 mm 8 mps 763 mmHg 30%
    21:00 -11°C° 0 mm 8 mps 763 mmHg 31%
    22:00 -11°C° 0 mm 8 mps 763 mmHg 32%
    23:00 -11°C° 0 mm 8 mps 763 mmHg 33%

    Tomorrow, 21 January, Monday

    Time Temperature Precipitation Wind Pressure Humidity
    00:00 -11°C° 0 mm 7 mps 762 mmHg 34%
    01:00 -11°C° 0 mm 7 mps 762 mmHg 35%
    02:00 -9°C° 0 mm 6 mps 762 mmHg 36%
    03:00 -8°C° 0 mm 5 mps 762 mmHg 37%
    04:00 -8°C° 0 mm 5 mps 761 mmHg 40%
    05:00 -8°C° 0 mm 4 mps 761 mmHg 42%
    06:00 -8°C° 0 mm 3 mps 761 mmHg 45%
    07:00 -7°C° 0 mm 3 mps 760 mmHg 45%
    08:00 -6°C° 0 mm 3 mps 760 mmHg 46%
    09:00 -6°C° 0 mm 3 mps 760 mmHg 47%
    10:00 -5°C° 0 mm 3 mps 759 mmHg 40%
    11:00 -2°C° 0 mm 2 mps 759 mmHg 34%
    12:00 -1°C° 0 mm 2 mps 759 mmHg 27%
    13:00 -1°C° 0 mm 3 mps 758 mmHg 27%
    14:00 -1°C° 0 mm 3 mps 758 mmHg 26%
    15:00 -1°C° 0 mm 4 mps 758 mmHg 25%
    16:00 -2°C° 0 mm 5 mps 758 mmHg 29%
    17:00 -4°C° 0 mm 6 mps 759 mmHg 32%
    18:00 -6°C° 0 mm 7 mps 759 mmHg 35%
    19:00 -7°C° 0 mm 7 mps 759 mmHg 37%
    20:00 -7°C° 0 mm 8 mps 760 mmHg 39%
    21:00 -7°C° 0 mm 8 mps 760 mmHg 41%
    22:00 -7°C° 0 mm 8 mps 760 mmHg 44%
    23:00 -8°C° 0 mm 8 mps 760 mmHg 46%

    Day after tomorrow, 22 January, Tuesday

    Time Temperature Precipitation Wind Pressure Humidity
    00:00 -8°C° 0 mm 8 mps 761 mmHg 48%
    01:00 -8°C° 0 mm 8 mps 761 mmHg 48%
    02:00 -8°C° 0 mm 7 mps 761 mmHg 47%
    03:00 -8°C° 0 mm 7 mps 761 mmHg 47%
    04:00 -8°C° 0 mm 6 mps 761 mmHg 47%
    05:00 -7°C° 0 mm 5 mps 761 mmHg 47%
    06:00 -8°C° 0 mm 4 mps 761 mmHg 48%
    07:00 -7°C° 0 mm 4 mps 761 mmHg 46%
    08:00 -6°C° 0 mm 3 mps 761 mmHg 45%
    09:00 -5°C° 0 mm 3 mps 761 mmHg 43%
    10:00 -4°C° 0 mm 3 mps 760 mmHg 39%
    11:00 -2°C° 0 mm 4 mps 760 mmHg 34%
    12:00 0°C° 0 mm 4 mps 759 mmHg 30%
    13:00 0°C° 0 mm 4 mps 758 mmHg 30%
    14:00 +1°C° 0 mm 4 mps 758 mmHg 30%
    15:00 +1°C° 0 mm 4 mps 757 mmHg 30%
    16:00 +1°C° 0 mm 3 mps 757 mmHg 35%
    17:00 0°C° 0 mm 3 mps 757 mmHg 39%
    18:00 -1°C° 0 mm 2 mps 757 mmHg 43%
    19:00 -1°C° 0 mm 3 mps 757 mmHg 41%
    20:00 -2°C° 0 mm 5 mps 758 mmHg 39%
    21:00 -4°C° 0 mm 6 mps 758 mmHg 37%
    22:00 -4°C° 0 mm 6 mps 758 mmHg 39%
    23:00 -6°C° 0 mm 7 mps 758 mmHg 41%

    23 January, Wednesday

    Time Temperature Precipitation Wind Pressure Humidity
    00:00 -6°C° 0 mm 7 mps 759 mmHg 42%
    01:00 -7°C° 0 mm 7 mps 759 mmHg 41%
    02:00 -6°C° 0 mm 6 mps 759 mmHg 40%
    03:00 -8°C° 0 mm 6 mps 759 mmHg 40%
    04:00 -8°C° 0 mm 6 mps 759 mmHg 41%
    05:00 -8°C° 0 mm 7 mps 759 mmHg 43%
    06:00 -8°C° 0 mm 8 mps 759 mmHg 45%
    07:00 -10°C° 0 mm 9 mps 760 mmHg 44%
    08:00 -10°C° 0 mm 9 mps 761 mmHg 44%
    09:00 -10°C° 0 mm 10 mps 761 mmHg 44%
    10:00 -10°C° 0 mm 10 mps 762 mmHg 41%
    11:00 -9°C° 0 mm 10 mps 762 mmHg 38%
    12:00 -9°C° 0 mm 10 mps 763 mmHg 35%
    13:00 -8°C° 0 mm 10 mps 763 mmHg 33%
    14:00 -8°C° 0 mm 10 mps 763 mmHg 30%
    15:00 -8°C° 0 mm 10 mps 763 mmHg 28%
    16:00 -9°C° 0 mm 10 mps 764 mmHg 30%
    17:00 -9°C° 0 mm 10 mps 765 mmHg 33%
    18:00 -10°C° 0 mm 10 mps 765 mmHg 35%
    19:00 -10°C° 0 mm 10 mps 766 mmHg 37%
    20:00 -12°C° 0 mm 10 mps 767 mmHg 39%
    21:00 -12°C° 0 mm 10 mps 768 mmHg 41%
    22:00 -12°C° 0 mm 10 mps 768 mmHg 42%
    23:00 -12°C° 0 mm 9 mps 768 mmHg 42%

    24 January, Thursday

    Time Temperature Precipitation Wind Pressure Humidity
    00:00 -12°C° 0 mm 9 mps 769 mmHg 43%
    01:00 -12°C° 0 mm 8 mps 769 mmHg 43%
    02:00 -12°C° 0 mm 8 mps 769 mmHg 43%
    03:00 -13°C° 0 mm 7 mps 770 mmHg 43%
    04:00 -13°C° 0 mm 7 mps 770 mmHg 44%
    05:00 -13°C° 0 mm 7 mps 770 mmHg 44%
    06:00 -12°C° 0 mm 6 mps 770 mmHg 44%
    07:00 -12°C° 0 mm 6 mps 771 mmHg 43%
    08:00 -11°C° 0 mm 6 mps 771 mmHg 41%
    09:00 -11°C° 0 mm 6 mps 771 mmHg 39%
    10:00 -10°C° 0 mm 5 mps 771 mmHg 35%
    11:00 -7°C° 0 mm 5 mps 771 mmHg 31%
    12:00 -5°C° 0 mm 4 mps 771 mmHg 27%
    13:00 -5°C° 0 mm 4 mps 770 mmHg 26%
    14:00 -4°C° 0 mm 4 mps 770 mmHg 24%
    15:00 -4°C° 0 mm 4 mps 769 mmHg 23%
    16:00 -4°C° 0 mm 3 mps 770 mmHg 26%
    17:00 -5°C° 0 mm 3 mps 770 mmHg 29%
    18:00 -6°C° 0 mm 3 mps 770 mmHg 31%
    19:00 -6°C° 0 mm 3 mps 770 mmHg 33%
    20:00 -6°C° 0 mm 3 mps 770 mmHg 34%
    21:00 -7°C° 0 mm 3 mps 771 mmHg 36%
    22:00 -7°C° 0 mm 3 mps 770 mmHg 37%
    23:00 -7°C° 0 mm 3 mps 770 mmHg 38%

    25 January, Friday

    Time Temperature Precipitation Wind Pressure Humidity
    00:00 -7°C° 0 mm 3 mps 770 mmHg 39%
    01:00 -7°C° 0 mm 3 mps 770 mmHg 40%
    02:00 -8°C° 0 mm 4 mps 770 mmHg 41%
    03:00 -8°C° 0 mm 4 mps 769 mmHg 42%
    04:00 -8°C° 0 mm 5 mps 769 mmHg 44%
    05:00 -9°C° 0 mm 6 mps 769 mmHg 47%
    06:00 -11°C° 0 mm 7 mps 769 mmHg 49%
    07:00 -11°C° 0 mm 7 mps 769 mmHg 49%
    08:00 -11°C° 0 mm 8 mps 770 mmHg 48%
    09:00 -11°C° 0 mm 8 mps 770 mmHg 48%
    10:00 -10°C° 0 mm 8 mps 769 mmHg 43%
    11:00 -10°C° 0 mm 8 mps 769 mmHg 39%
    12:00 -8°C° 0 mm 8 mps 769 mmHg 35%
    13:00 -8°C° 0 mm 8 mps 768 mmHg 34%
    14:00 -9°C° 0 mm 9 mps 768 mmHg 33%
    15:00 -8°C° 0 mm 9 mps 767 mmHg 31%
    16:00 -9°C° 0 mm 9 mps 768 mmHg 33%
    17:00 -10°C° 0 mm 9 mps 768 mmHg 34%
    18:00 -10°C° 0 mm 9 mps 768 mmHg 36%
    19:00 -11°C° 0 mm 9 mps 769 mmHg 39%
    20:00 -12°C° 0 mm 10 mps 769 mmHg 41%
    21:00 -12°C° 0 mm 10 mps 769 mmHg 44%
    22:00 -13°C° 0 mm 10 mps 769 mmHg 45%
    23:00 -13°C° 0 mm 10 mps 769 mmHg 46%
    Show more